Weather Roundup
Issued by NWS Chicago, IL

Home | Current Version | Previous Version | Graphics & Text | Print | Product List | Glossary On
Versions: 1 2 3 4 5 6 7 8 9 10 11 12 13 14 15 16 17 18 19 20 21 22 23 24 25 26 27 28 29 30 31 32 33 34 35 36 37 38 39 40 41 42 43 44 45 46 47 48 49 50
000
NZUS59 KLOT 090508
HRRLOT

CHICAGO AREA WEATHER ROUNDUP
NATIONAL WEATHER SERVICE CHICAGO/ROMEOVILLE IL
1100 PM CST MON FEB 08 2016

NOTE: "FAIR" INDICATES FEW OR NO CLOUDS BELOW 12,000 FEET WITH NO
SIGNIFICANT WEATHER AND/OR OBSTRUCTIONS TO VISIBILITY.

* THESE STATIONS ARE NOT UNDER NWS QUALITY CONTROL. THEY ALSO MAY NOT
  REPORT WEATHER SUCH AS PRECIPITATION OR FOG.

ILZ005-006-012>014-019>023-090600-
NORTHEAST ILLINOIS

CITY           SKY/WX    TMP DP  RH WIND       PRES   REMARKS
OHARE          LGT SNOW  22  17  81 NW14      29.73S WCI   9
MIDWAY         LGT SNOW  24  17  74 W14       29.74S WCI  12
AURORA         LGT SNOW  22  16  78 NW17      29.76F WCI   8
LANSING*       CLOUDY    25  19  78 NW12      29.74S WCI  14
JOLIET*        LGT SNOW  24  19  80 NW7       29.77S WCI  16
WAUKEGAN       LGT SNOW  21  17  84 NW9       29.72S FOG     WCI  11
DUPAGE AIRPORT MIX PCPN  22  14  71 NW20      29.75S WCI   7
WHEELING       FLURRIES  21  16  81 NW15      29.74F WCI   8
KANKAKEE*      CLOUDY    25  18  74 W12G17    29.77S WCI  14
MORRIS*        LGT SNOW  23  17  75 NW13G21   29.74F WCI  12
LEWIS AIRPORT* LGT SNOW  23  17  80 NW12G18   29.76S WCI  11
$$

WIZ051-052-058>065-066-070>072-090600-
SOUTHEAST WISCONSIN

CITY           SKY/WX    TMP DP  RH WIND       PRES   REMARKS
MILWAUKEE      LGT SNOW  20  14  77 NW17G25   29.72S WCI   5
KENOSHA*       LGT SNOW  20  15  81 NW14      29.73R WCI   7
RACINE*        LGT SNOW  21  15  78 NW12      29.73S WCI   9
BURLINGTON     LGT SNOW  17  13  83 NW10      29.74S WCI   5
WAUKESHA       LGT SNOW  16  12  86 NW14      29.74S WCI   1
WEST BEND      FLURRIES  19  14  79 NW14      29.73S WCI   6
$$

INZ001>003-010>013-019-020-090600-
NORTHWEST INDIANA

CITY           SKY/WX    TMP DP  RH WIND       PRES   REMARKS
GARY*          FLURRIES  27  19  72 W16       29.74S WCI  15
MICHIGAN CITY* NOT AVBL
RENSSELAER*    NOT AVBL
VALPARAISO     LGT SNOW  26  22  84 W12       29.72S WCI  16
$$

LMZ740>746-090600-
SOUTHERN LAKE MICHIGAN

STATION/POSITION TIME  SKY/WX   TEMP WIND        PRES    VSBY
                                AIR  DIR/SP/G
                 (UTC)          (F)  (DEG/KT/KT) (MB)    (MI)
HARRISON CRIB    0400            25  300/ 19/ 22   N/A
BURNHAM HARBOR   0500            24  300/ 10/ 16   N/A
CALUMET HARBOR   0400            25  270/  6/ 14 1006.3F
BURNS HARBOR     0400            27  290/ 14/ 18 1006.8F
MICHIGAN CITY    0400            27  280/ 20/ 21   N/A
$$

ABBREVIATIONS USED IN REMARKS
   TC - TEMPERATURE IN CELSIUS
  WCI - WIND CHILL INDEX
   HX - HEAT INDEX
  VSB - VISIBILITY
$$



USA.gov is the U.S. government's official web portal to all federal, state and local government web resources and services.